Theta_e
290 290 289 289 290 288 288 288 287 288 290 287 285 287 289 283 279 281 291 295 293 296 298 300 300 300 298 298 298 299 300 300 300 299 298 297 298 298 297 297 298 297 298 298 300 302 304 309 312 313 314 314 315 315 314 314 314 314 314 314 315 316 316 316 316 316 317 317 317 316 316 316 314 314 314 314 314 313 312 310 312 312 312 311 310 309 308
289 290 289 290 288 287 287 287 287 288 290 289 290 290 289 289 287 291 294 290 287 289 291 293 294 295 295 295 296 296 296 296 296 295 295 295 294 294 295 295 296 297 298 298 299 299 300 302 306 310 313 314 315 315 315 316 316 316 315 314 314 314 314 313 313 314 314 315 315 315 315 314 313 312 314 315 315 314 312 311 310 311 310 310 310 311 310
286 290 291 290 288 287 286 286 286 286 288 290 290 290 290 292 291 292 291 288 286 291 294 294 294 294 294 294 292 293 293 294 293 293 292 292 292 292 293 294 295 296 296 296 297 298 299 301 303 307 309 311 312 312 314 315 316 316 317 316 315 315 315 315 315 315 315 314 314 315 314 313 313 314 315 314 313 312 310 309 310 310 309 310 309 310 310
283 287 288 290 289 287 285 284 284 284 283 285 286 286 291 290 288 290 290 287 285 290 293 292 292 292 291 290 291 291 291 292 292 291 291 291 292 292 293 294 294 295 295 295 295 296 297 299 300 300 300 300 300 300 301 301 303 305 306 309 312 315 316 316 316 315 315 315 315 314 313 312 311 312 312 313 314 313 312 310 308 308 308 307 308 307 308
281 289 288 287 286 285 282 281 283 284 284 285 287 288 290 292 293 289 289 288 290 292 292 289 289 290 290 290 290 290 291 292 292 291 291 292 292 292 293 294 294 294 294 295 295 296 296 297 298 299 299 299 299 299 299 300 300 300 300 301 301 302 304 307 311 313 314 313 312 312 312 312 311 311 311 311 311 312 311 309 308 309 307 307 307 307 308
282 285 285 286 282 276 277 287 289 287 285 286 286 284 286 287 289 287 288 286 289 289 288 287 286 287 287 289 290 292 291 291 291 292 292 292 292 293 293 293 294 294 294 295 296 296 297 298 298 299 299 298 298 299 299 299 298 298 299 299 299 299 300 301 302 303 304 305 305 307 309 310 310 310 309 308 308 307 307 308 308 306 306 307 306 307 307
281 283 284 281 275 277 288 292 291 291 291 289 287 287 288 288 288 288 287 287 286 286 286 286 285 286 287 289 289 290 293 293 292 292 292 293 293 292 293 293 294 294 294 295 295 296 297 298 298 298 297 297 297 297 297 296 297 297 297 297 297 297 297 298 299 299 299 300 299 299 300 300 301 302 304 305 308 306 305 305 305 305 305 306 305 304 306
283 282 280 275 276 286 290 292 291 292 290 288 287 287 287 289 289 288 286 287 287 287 287 288 288 287 287 290 291 290 293 294 292 291 291 293 294 293 293 293 294 294 295 295 295 296 298 297 297 296 296 297 296 295 296 296 296 296 296 296 296 296 296 297 297 298 298 297 297 297 297 297 297 298 299 299 301 303 303 303 303 304 303 303 302 304 307
279 279 279 280 285 286 287 285 286 285 283 285 284 281 284 289 289 289 287 287 288 288 289 290 291 292 291 289 289 293 294 294 295 295 294 295 295 295 295 295 295 296 296 296 296 297 296 296 296 296 296 296 295 295 295 295 295 295 295 295 295 295 295 296 296 297 297 296 296 296 296 296 295 296 296 296 297 299 299 300 300 301 302 302 303 303 304
282 280 279 280 280 278 282 287 289 291 289 288 288 284 283 289 290 291 288 287 288 288 289 290 292 293 290 285 286 291 293 295 295 296 296 296 296 296 296 296 296 296 295 296 297 296 295 295 296 296 296 295 295 294 294 294 294 294 294 294 295 295 295 295 295 296 296 296 295 295 295 295 295 294 295 295 295 297 296 296 297 298 299 299 301 302 302
279 277 277 277 276 278 284 286 289 290 290 289 288 281 280 285 289 289 289 287 288 289 289 290 292 291 286 284 286 293 295 294 294 294 295 295 296 296 296 295 295 296 296 297 297 296 295 294 295 296 296 296 294 293 293 293 293 293 293 294 295 294 295 296 296 296 296 296 295 295 294 294 295 294 294 295 295 294 295 295 295 295 297 297 297 298 299
278 276 275 275 278 278 285 287 289 290 291 292 284 274 277 285 288 289 289 289 289 290 291 291 290 288 285 285 288 294 293 293 292 292 294 294 295 296 296 296 296 296 297 296 294 294 294 295 295 295 295 295 295 293 293 293 293 292 293 293 294 294 294 295 295 295 296 296 295 295 294 294 294 294 294 294 294 294 294 294 294 294 295 295 295 295 296
278 280 279 280 280 284 286 287 289 290 291 289 279 273 278 286 287 288 288 290 291 292 291 291 285 288 290 290 292 293 293 292 292 294 295 295 296 296 295 295 295 294 294 293 293 293 294 294 295 295 294 294 293 293 293 293 292 293 294 294 294 293 294 294 294 295 295 295 295 295 295 294 294 294 294 294 294 293 293 294 294 294 293 293 293 293 294
276 275 276 277 279 284 286 288 288 290 289 282 278 283 289 288 288 288 290 291 292 293 292 290 290 290 292 293 293 293 294 292 292 292 293 293 294 295 296 295 294 293 293 293 293 293 293 294 294 294 294 293 292 292 292 292 293 294 295 294 294 294 293 293 293 293 293 294 295 295 295 295 294 293 294 294 294 293 293 293 292 292 292 292 292 292 292
275 274 274 273 273 282 289 286 287 288 284 282 288 288 288 290 289 290 291 293 293 292 290 291 291 290 291 291 292 292 291 291 291 291 292 292 292 292 292 292 293 293 292 292 292 292 293 293 293 293 293 292 291 291 290 291 292 293 293 293 294 294 293 293 292 292 292 292 292 293 293 293 292 291 292 292 292 293 292 292 291 291 291 291 291 291 292
273 273 273 275 282 285 289 286 282 285 286 289 289 288 286 288 290 291 292 292 292 292 291 289 290 290 290 289 289 289 289 289 289 290 290 291 291 291 291 292 292 293 292 292 292 292 292 293 293 293 293 292 291 290 290 291 291 291 291 292 293 292 292 292 292 292 292 292 291 291 292 292 291 290 290 291 291 291 290 289 289 289 289 290 290 289 289
275 277 280 285 286 287 288 288 287 288 290 291 290 289 289 289 289 289 289 289 290 291 291 290 289 288 287 287 288 288 289 289 289 288 288 288 289 290 290 291 292 291 291 290 291 291 291 292 292 292 292 291 291 290 290 291 291 290 290 291 290 290 290 290 290 290 290 290 290 290 290 290 290 290 290 290 290 290 290 290 289 289 289 289 289 289 289
286 286 287 289 287 287 288 289 290 289 290 291 291 290 289 289 289 290 288 288 289 290 290 289 288 288 288 288 288 288 289 289 290 290 289 289 289 290 290 290 291 290 290 290 290 290 289 290 290 290 290 290 289 287 288 290 289 289 290 290 289 289 289 289 288 289 289 289 289 289 289 289 289 289 289 289 289 289 289 288 287 288 287 287 287 287 287
280 277 286 286 286 287 289 289 290 291 291 291 291 290 290 290 291 291 292 291 291 290 291 290 288 288 288 288 288 289 289 289 289 289 289 289 289 288 288 288 289 289 289 289 289 289 289 289 289 290 289 289 288 288 289 288 289 289 289 289 289 288 288 288 287 287 287 288 287 288 288 288 288 289 287 287 288 287 287 287 287 286 287 287 287 286 286
277 280 284 286 286 287 288 289 289 289 290 291 291 292 293 293 294 293 293 293 292 292 290 290 290 289 290 289 289 290 290 289 289 288 289 288 288 288 288 288 289 288 288 288 287 288 288 287 288 288 288 287 288 288 288 288 288 289 289 289 288 287 287 287 287 287 287 287 287 286 287 287 286 287 288 288 287 287 287 287 286 286 287 286 286 286 286
280 282 283 284 284 285 286 289 290 291 290 290 291 291 292 292 291 291 292 292 292 290 289 290 289 288 288 288 288 288 287 288 288 289 289 288 288 288 288 288 289 289 288 288 288 288 288 287 287 287 287 288 287 287 287 287 286 287 287 287 285 285 285 285 286 286 286 286 285 285 286 286 286 285 286 287 287 287 287 286 286 287 287 286 287 286 286
275 276 280 281 277 277 283 287 288 290 292 292 291 291 291 291 290 290 289 289 289 289 289 289 289 287 286 287 287 286 285 284 284 286 287 287 288 289 290 291 291 291 290 290 289 289 287 287 287 287 287 288 287 287 287 286 286 287 287 285 285 285 285 285 285 285 286 285 285 285 285 285 286 287 286 289 288 286 287 290 289 289 288 286 288 288 287
275 281 283 283 281 282 283 284 287 288 290 291 290 290 289 290 290 290 289 288 287 287 287 289 288 286 286 285 285 285 285 284 284 284 285 286 287 288 289 289 288 288 288 289 287 287 286 287 287 287 287 287 287 287 286 286 286 286 286 286 284 284 284 285 285 285 285 285 286 285 285 285 286 285 285 287 288 289 289 290 289 289 289 289 289 289 288
282 285 285 285 284 283 284 285 286 286 287 288 288 289 289 289 288 288 288 288 286 285 285 285 286 286 285 284 285 284 284 284 284 285 285 285 286 287 287 287 286 286 286 286 286 285 285 286 286 286 287 288 287 286 285 285 285 285 285 285 285 284 283 284 285 285 283 283 284 285 285 285 286 286 286 286 286 288 288 289 290 289 289 289 289 289 289
283 287 289 290 288 287 287 286 286 286 288 287 286 286 286 286 286 287 286 285 286 286 285 284 284 284 285 283 284 284 284 284 285 285 286 287 287 287 286 285 285 285 285 284 284 285 285 285 285 285 286 287 286 284 284 285 285 286 285 285 285 284 283 283 283 283 283 283 283 284 285 287 287 288 287 286 286 286 286 288 289 289 289 289 289 289 289
288 288 289 290 289 288 287 286 286 285 286 286 286 286 288 289 286 286 285 285 284 285 285 284 284 284 285 284 283 283 284 284 286 286 286 286 286 286 286 285 285 284 285 284 284 286 286 286 285 283 286 286 286 285 284 285 285 286 286 285 284 284 285 285 283 283 282 282 284 283 285 286 285 285 286 287 287 287 286 286 286 286 288 288 288 289 289
288 289 288 286 286 287 289 288 286 288 287 287 287 285 284 285 288 285 283 284 284 285 285 285 284 283 283 283 283 282 285 283 283 284 284 285 286 285 285 285 284 284 284 284 285 285 286 286 284 283 285 286 285 283 285 286 284 284 285 285 284 284 285 286 283 283 283 282 283 283 283 285 284 284 286 287 287 286 287 287 286 286 287 287 288 288 288
286 286 287 283 282 284 286 287 287 287 287 287 286 284 282 284 285 284 284 283 283 283 283 283 284 283 284 283 283 282 282 283 283 282 284 284 284 284 283 283 283 283 282 283 283 284 285 285 284 283 285 285 284 284 285 285 284 286 286 285 284 285 283 283 283 284 283 284 283 283 284 285 285 284 284 285 285 286 286 286 286 286 287 288 288 288 289
285 286 287 288 288 288 286 285 285 285 284 284 284 283 283 284 283 284 283 283 283 282 283 283 283 284 285 283 282 283 282 282 282 282 284 284 284 283 282 282 282 282 282 282 282 282 284 284 284 283 284 284 285 284 285 285 284 285 285 284 284 284 282 282 282 282 282 282 283 283 284 283 283 283 283 283 283 284 285 286 286 286 287 287 287 287 288
283 284 286 286 286 286 285 284 286 286 285 283 283 282 282 284 282 282 283 281 281 284 283 282 282 283 282 282 281 282 282 282 282 282 283 283 283 282 282 282 282 281 281 282 281 282 283 283 283 282 284 283 284 284 284 284 284 284 285 285 283 283 283 283 282 282 282 283 283 284 283 283 283 282 282 282 283 282 282 284 285 285 284 285 285 285 285
284 284 285 284 285 285 286 285 284 283 282 281 282 282 281 282 283 282 281 281 282 282 282 282 282 282 281 283 283 281 281 280 281 281 281 282 282 280 280 283 284 283 282 282 282 282 283 283 283 283 284 284 283 284 285 284 283 284 285 285 284 284 284 284 284 283 283 284 283 282 282 282 282 282 282 282 282 282 283 283 282 282 282 283 283 283 284
284 284 285 283 281 281 283 282 283 283 283 281 281 281 281 282 282 282 281 281 282 282 282 281 281 282 282 281 280 280 278 277 277 278 279 278 277 274 269 274 281 282 281 281 281 282 282 282 283 285 284 284 284 284 284 283 283 286 286 284 283 282 283 285 283 283 283 284 283 282 283 282 282 282 282 281 281 282 284 284 283 283 282 282 283 283 283
282 282 282 283 283 282 282 281 282 282 281 281 281 282 281 281 283 284 283 283 282 281 282 283 282 281 280 278 277 276 274 274 276 276 276 274 273 271 270 274 278 279 280 280 280 281 282 282 284 284 284 284 284 284 284 282 282 285 283 282 282 282 284 284 284 282 283 283 283 283 282 282 282 282 282 282 282 282 283 283 283 283 282 282 282 282 283
283 282 283 285 286 283 283 283 282 282 281 281 280 280 281 281 283 283 283 282 283 282 282 282 281 279 278 276 272 270 271 275 275 275 274 271 269 268 270 275 278 279 280 280 280 281 281 283 283 284 284 284 283 284 284 283 282 284 283 282 283 283 283 283 282 282 282 283 283 283 283 283 283 282 282 282 282 281 282 282 283 282 281 282 282 282 284
283 283 284 286 285 284 284 284 283 282 282 282 282 281 281 282 283 283 283 283 282 284 283 280 278 276 274 270 270 269 271 275 274 273 272 270 269 269 271 277 279 280 280 280 281 282 283 283 283 283 283 283 283 283 284 283 282 283 282 282 283 283 282 282 282 282 282 282 282 282 283 282 282 283 283 282 282 281 282 282 282 281 282 281 282 282 283
284 284 284 284 284 284 284 284 284 284 284 283 282 281 282 283 282 282 282 283 284 282 280 278 275 275 273 271 271 269 271 273 270 268 267 266 267 267 274 278 280 280 279 281 282 282 282 282 283 283 282 282 282 283 282 282 282 282 281 281 282 282 281 282 282 282 282 282 283 283 284 284 283 283 284 284 284 285 285 284 282 282 281 280 280 283 284
285 286 286 286 285 285 284 284 284 284 283 283 282 281 282 281 283 284 284 283 282 281 280 279 278 277 277 276 276 272 271 272 272 270 271 267 268 273 275 277 277 277 278 279 281 280 281 281 282 283 282 282 282 283 283 284 283 282 282 282 282 282 281 281 282 282 282 282 282 283 284 284 285 286 285 286 286 285 285 285 284 283 282 281 281 282 284
284 284 285 286 286 286 286 285 285 285 284 283 281 281 283 283 283 282 283 282 282 282 280 280 280 281 280 277 274 273 273 269 270 269 267 266 268 274 275 275 277 276 277 280 279 279 281 281 282 282 281 282 283 282 282 283 283 282 282 282 282 282 282 281 281 282 282 282 283 282 282 284 285 285 286 286 286 286 285 285 284 283 282 281 282 282 282
285 284 285 285 285 285 285 285 285 285 285 285 284 282 282 282 282 282 282 282 281 281 281 280 280 279 279 279 279 278 277 275 272 270 269 269 272 275 278 279 279 280 281 280 281 281 281 281 281 281 282 283 283 282 282 283 283 282 282 283 283 282 282 281 282 283 282 282 282 282 282 282 283 284 285 286 286 285 285 284 283 282 283 282 282 283 283
284 284 285 284 284 285 286 286 286 285 284 284 284 284 283 282 281 282 282 282 282 282 282 281 280 280 280 279 280 280 280 279 276 274 272 272 274 275 277 279 281 281 282 282 282 282 282 282 282 281 282 283 282 281 282 282 282 282 283 282 282 282 281 282 282 282 281 281 282 283 281 281 282 283 285 285 285 285 285 285 285 284 283 283 284 284 284
284 284 285 285 285 284 284 285 285 285 283 283 283 283 282 282 282 281 282 283 282 281 281 281 281 281 281 282 282 282 280 279 278 277 277 276 277 277 276 278 280 281 282 282 282 282 282 282 281 280 281 280 280 280 279 281 281 280 282 283 282 282 282 282 282 282 282 282 282 281 281 280 281 281 282 283 284 285 285 285 285 285 285 284 284 284 284
283 284 284 284 283 284 284 286 286 286 286 284 284 284 284 283 282 283 282 281 281 282 282 282 282 283 283 282 281 281 280 279 278 278 278 279 279 277 276 279 281 281 282 282 282 282 281 281 281 281 281 280 279 281 281 280 279 280 283 283 283 283 282 282 282 281 281 281 280 280 281 280 280 279 280 281 281 283 283 283 283 285 285 284 283 283 284
282 284 283 283 283 283 285 285 285 286 286 286 287 286 284 283 282 282 282 281 282 282 282 282 282 282 282 281 281 281 281 280 278 278 278 279 279 279 280 281 280 281 283 283 283 283 283 283 283 282 281 280 279 281 281 280 280 280 283 284 283 283 283 282 281 280 281 280 280 279 279 279 279 279 279 279 280 281 281 281 281 282 283 283 282 283 283
281 282 282 283 283 284 283 284 284 283 284 285 286 286 285 283 283 283 283 282 281 281 282 282 282 282 282 281 281 281 281 280 279 279 278 279 280 281 282 282 282 283 283 284 284 284 283 282 281 281 281 281 281 281 280 279 280 280 282 284 284 283 283 282 281 281 281 281 280 280 281 281 279 279 280 279 279 279 280 280 281 281 282 283 285 283 282
282 281 282 283 284 283 284 283 285 286 286 284 285 284 284 284 283 282 283 283 282 281 281 282 282 282 282 281 282 283 283 283 282 280 279 279 279 281 281 283 284 283 282 282 283 283 282 281 280 281 281 281 281 282 279 279 280 282 283 285 284 283 283 283 282 282 281 281 280 280 281 280 281 280 279 279 280 279 279 281 282 283 284 284 284 283 281
282 282 282 283 283 284 285 286 286 285 286 286 286 284 284 284 283 282 283 284 283 282 283 283 282 283 282 282 283 283 282 281 280 282 283 282 282 281 280 282 283 283 283 282 281 281 280 281 281 281 281 281 282 280 279 279 281 283 284 285 284 284 283 283 283 282 282 281 280 280 281 280 280 279 279 279 279 278 280 281 280 282 284 284 284 282 281
282 282 282 283 284 284 283 283 284 285 285 285 284 284 283 283 284 283 283 284 285 285 283 282 282 283 283 283 282 281 280 280 279 280 282 282 281 282 281 282 283 283 282 281 280 280 280 280 280 281 281 282 282 279 279 280 281 283 284 285 284 284 284 283 283 283 282 280 281 281 282 281 281 281 281 281 280 279 280 280 280 280 282 283 283 282 282
283 283 284 283 284 284 284 283 284 284 283 285 285 284 283 283 283 285 284 283 284 286 287 284 282 283 283 283 283 283 283 282 279 281 280 281 282 281 281 280 280 282 282 282 281 281 281 281 281 281 281 282 280 279 280 281 281 282 283 284 284 283 283 282 282 281 281 282 281 282 280 279 280 280 280 281 281 281 282 283 283 283 282 283 283 283 283
283 283 283 282 282 283 283 282 283 283 284 284 284 284 284 284 284 283 284 285 286 286 286 285 284 284 284 283 284 283 283 282 284 284 281 281 281 281 281 281 282 282 281 281 282 281 281 281 281 281 281 282 279 280 281 281 281 281 282 282 283 283 283 283 283 282 281 281 281 281 280 281 281 280 280 281 282 282 282 282 283 282 282 283 283 283 283
283 283 283 283 282 282 282 282 282 283 285 283 283 285 283 285 284 284 284 283 284 284 283 283 283 283 283 283 282 282 282 282 282 282 280 280 280 279 280 280 280 281 281 281 282 280 281 281 281 281 280 279 279 281 282 281 281 281 281 282 282 281 282 283 283 283 282 281 281 280 280 280 280 279 279 279 279 281 282 281 282 283 284 284 283 283 283
283 283 284 284 283 282 283 284 285 285 284 284 284 283 283 283 284 284 284 283 282 283 283 283 283 283 282 282 283 284 282 281 282 282 281 280 280 280 280 280 280 281 280 280 280 279 278 278 277 279 280 280 279 280 280 280 280 281 280 280 281 281 281 281 281 282 282 281 280 281 280 279 279 280 278 278 278 278 280 281 282 282 282 283 283 283 283
283 282 283 282 282 282 282 283 283 283 283 283 283 282 282 283 284 284 283 283 283 284 283 283 284 285 283 283 283 283 283 283 283 283 282 281 280 279 280 281 280 280 281 280 279 281 279 278 280 280 280 278 278 279 281 281 280 279 280 280 281 280 280 281 280 281 281 281 281 280 280 280 279 280 277 277 277 279 278 277 279 280 282 282 283 284 283
Wind_Speed
4 7 7 4 6 5 4 6 6 7 8 3 5 1 1 5 3 5 5 4 5 6 6 5 4 5 8 9 8 8 8 8 9 10 12 12 11 11 13 10 11 11 10 9 10 9 6 7 8 8 8 7 7 7 6 5 5 3 1 3 5 5 6 9 9 8 9 8 7 7 5 4 2 1 1 1 1 2 3 4 4 4 4 4 4 3 3
9 10 9 8 5 4 7 8 9 7 7 8 11 7 2 2 5 6 10 10 6 4 6 6 6 7 9 9 8 9 10 9 10 10 11 11 10 11 11 11 10 10 10 9 9 9 8 8 9 9 7 7 7 6 6 6 6 5 5 6 6 6 5 4 5 5 5 5 3 7 8 6 3 3 4 4 3 3 3 4 4 4 4 4 5 6 5
5 7 6 8 8 3 7 7 10 10 8 5 6 9 6 11 10 9 10 10 5 4 3 6 6 8 8 10 12 11 9 8 9 11 11 10 10 11 10 11 11 11 10 10 9 11 10 9 9 9 9 9 9 9 8 8 8 7 8 8 7 7 7 5 6 6 5 4 5 5 7 5 5 4 4 4 4 3 2 2 1 1 4 4 4 4 5
1 5 6 5 8 5 7 7 13 12 9 3 2 2 1 3 8 6 10 5 2 2 4 7 8 9 9 11 9 9 8 8 8 11 10 9 10 10 11 11 9 8 10 10 11 10 10 11 11 10 10 10 11 11 11 11 10 10 11 10 9 8 7 7 6 6 5 5 5 5 5 4 3 3 3 4 4 3 4 4 2 2 3 3 3 4 4
1 2 7 6 6 4 4 6 8 8 4 3 1 3 5 1 9 13 9 5 4 5 2 9 9 10 10 10 8 7 9 8 9 11 10 9 10 9 9 10 9 8 10 10 9 9 9 10 12 11 11 12 12 11 12 10 11 12 12 11 12 11 10 10 8 7 7 8 7 7 5 5 5 5 6 6 6 6 6 3 3 4 2 3 3 1 3
2 4 3 2 3 2 3 2 3 2 3 3 4 4 5 8 5 2 5 8 8 8 7 9 9 10 9 8 8 8 6 6 11 11 10 9 9 9 10 10 8 7 7 8 9 11 11 11 11 9 11 12 10 10 11 11 13 12 13 12 12 11 11 11 10 9 9 10 9 8 7 7 7 6 6 5 4 3 2 3 4 4 4 3 3 2 1
2 2 3 3 0 2 0 2 4 3 7 11 11 9 10 8 9 14 13 11 11 10 9 8 10 8 7 10 11 10 10 8 6 10 10 10 9 9 8 9 9 9 9 9 10 12 11 10 8 9 11 10 9 11 10 12 11 12 12 13 12 11 11 9 9 9 10 10 9 8 8 9 9 9 8 6 5 3 3 3 3 3 2 2 2 3 2
2 2 2 2 2 1 3 3 4 2 1 1 2 9 9 8 5 9 13 11 10 10 11 8 8 10 4 10 11 10 9 9 8 9 9 9 8 10 9 9 8 9 10 9 9 10 9 10 10 10 9 8 11 10 10 11 11 11 12 12 11 11 11 10 10 9 10 9 9 8 8 9 10 9 8 7 7 5 3 3 2 2 3 2 2 4 4
3 2 2 1 1 1 3 3 4 4 2 4 3 2 3 4 1 4 13 12 11 10 9 9 8 8 8 11 9 9 8 7 6 6 7 8 7 7 8 8 8 8 8 9 7 8 12 11 10 9 7 8 10 12 12 11 11 11 12 12 11 10 10 10 10 9 9 9 9 9 8 10 9 8 7 8 7 5 6 6 6 6 5 4 3 3 3
3 5 4 2 0 3 1 1 4 0 2 2 2 1 2 2 5 4 12 14 11 10 9 8 9 6 11 9 5 5 6 7 7 7 7 7 7 7 8 9 9 9 9 8 8 10 11 11 9 8 9 9 12 13 12 11 12 12 13 11 9 10 10 9 9 9 9 9 9 8 9 9 7 5 5 4 6 5 6 6 7 6 5 6 6 6 5
3 3 4 2 4 0 1 4 5 4 1 2 1 2 1 2 5 3 7 13 11 12 12 10 6 3 5 4 2 2 4 5 4 5 6 7 7 6 7 8 8 7 7 6 6 8 10 11 9 7 7 10 13 13 11 11 11 13 11 10 10 9 9 8 8 8 8 8 8 8 8 7 7 7 7 6 4 4 6 5 5 4 6 6 6 7 7
2 3 3 2 0 1 1 5 7 9 4 0 2 2 4 5 7 5 7 13 12 9 8 5 1 1 9 7 5 4 3 5 7 6 6 8 7 6 5 6 6 6 6 8 9 10 11 10 7 8 8 12 14 12 11 10 12 11 9 8 7 7 7 7 7 8 7 8 8 8 7 6 6 6 5 6 7 6 5 5 5 6 6 7 7 7 6
5 5 1 3 1 1 3 6 11 10 5 1 2 4 2 4 8 6 4 8 8 8 6 3 2 2 5 8 9 7 5 5 6 5 5 6 5 6 7 7 7 8 7 7 9 9 8 8 7 8 9 12 12 10 10 11 11 8 6 5 6 6 6 6 7 7 6 7 8 8 6 5 4 5 6 6 6 7 7 6 6 7 7 6 6 7 6
3 1 4 1 0 0 4 8 8 7 1 2 3 1 1 8 8 5 6 8 5 4 3 2 6 8 12 12 10 7 5 5 5 7 7 8 7 6 6 7 8 8 7 8 9 8 7 7 7 7 9 11 10 9 10 10 7 5 5 5 5 6 6 6 6 7 7 7 6 6 6 7 7 7 6 6 6 6 5 6 7 6 5 5 5 5 5
1 3 3 1 1 1 7 13 5 2 1 1 1 1 4 5 10 10 7 6 4 4 7 8 11 13 10 10 9 7 6 7 7 7 7 7 7 6 7 7 5 7 8 8 8 7 6 6 6 6 10 11 10 9 11 7 4 5 5 6 7 7 7 7 7 7 7 8 7 6 7 7 7 8 7 8 8 8 8 8 8 8 8 8 7 7 7
0 2 2 1 3 6 9 4 0 2 0 1 0 3 5 3 7 9 7 3 4 8 10 11 10 10 9 7 6 7 6 6 6 6 6 6 7 7 5 5 5 7 9 8 8 6 5 5 5 6 8 9 9 9 8 3 4 5 6 6 7 8 8 9 9 9 8 8 7 7 8 7 7 8 8 7 6 6 6 6 6 5 6 5 5 5 6
2 1 2 1 1 5 5 2 2 2 3 4 3 7 6 6 3 3 6 7 7 9 12 10 9 9 5 6 6 7 5 6 6 7 6 6 6 6 6 6 6 7 8 8 7 6 5 6 6 6 6 9 9 9 4 3 5 5 6 7 7 8 8 8 8 7 8 8 7 7 7 7 8 8 8 7 7 7 7 7 6 6 6 5 6 6 6
4 5 3 1 2 2 4 5 4 5 6 6 6 8 9 5 5 5 8 7 8 9 10 12 7 7 7 8 6 5 4 6 5 6 7 7 6 6 6 6 6 7 7 7 7 7 6 6 7 6 6 7 9 4 3 4 4 5 5 6 7 6 6 6 6 6 7 7 7 7 7 7 6 5 5 6 6 7 6 6 6 6 6 6 6 6 6
3 2 2 4 3 3 5 6 7 7 7 6 6 9 8 8 9 10 9 9 8 8 9 10 10 9 8 8 6 5 5 5 5 6 7 5 5 6 5 4 5 7 6 6 6 5 6 5 6 6 6 6 5 4 4 4 4 5 5 5 5 5 5 5 4 4 4 5 6 6 6 6 6 5 5 5 5 5 6 6 5 5 5 5 6 6 6
3 2 1 1 2 2 4 4 6 8 8 9 8 8 9 10 10 10 9 9 10 7 8 7 9 7 6 8 5 5 4 6 6 6 6 6 5 4 4 4 5 5 6 5 4 4 3 3 4 4 4 4 3 3 3 3 4 5 5 5 5 4 5 4 3 3 4 5 4 5 4 4 6 6 6 5 5 5 5 5 5 6 5 5 6 6 7
2 3 2 1 4 6 5 4 5 4 5 8 9 8 8 8 10 9 9 7 5 6 7 5 7 7 4 4 4 5 3 4 3 4 5 5 5 5 5 4 5 5 4 4 4 4 3 1 2 3 2 1 1 1 1 0 2 4 3 3 4 5 4 4 4 3 3 3 3 5 4 5 4 3 4 6 6 6 4 3 3 4 5 6 5 5 5
1 4 3 3 3 1 0 1 3 4 4 8 9 9 8 7 8 8 10 8 6 6 4 6 7 9 6 5 7 7 5 3 3 4 4 3 4 3 3 3 5 5 4 4 4 5 3 1 3 3 2 1 0 1 1 1 1 3 2 3 4 4 3 3 3 3 3 3 3 3 4 4 5 5 5 6 6 4 6 8 8 6 4 4 6 7 7
3 6 5 3 2 4 3 3 1 3 4 8 8 7 7 5 5 7 10 9 8 8 6 4 10 8 8 5 6 7 5 4 3 3 4 4 4 3 2 4 4 4 4 4 5 5 3 2 1 1 1 0 0 1 1 1 2 3 3 3 4 4 3 4 3 3 4 4 5 5 4 4 5 4 5 6 9 11 10 8 7 9 12 13 13 11 7
1 1 6 4 3 6 3 3 1 1 1 6 6 5 5 7 6 6 8 9 10 5 6 5 4 8 6 4 7 6 4 3 4 4 2 3 3 3 2 3 4 4 4 5 5 4 2 3 2 0 0 0 1 3 3 4 3 4 4 4 3 3 3 3 3 4 3 3 3 4 6 5 5 5 5 6 6 7 9 8 9 12 13 13 13 12 13
2 2 3 1 1 4 3 2 2 1 2 4 6 4 5 6 5 7 9 5 6 10 7 5 2 3 8 4 6 6 4 2 3 4 4 4 4 4 3 3 3 3 3 2 3 4 3 4 4 2 0 1 2 3 4 4 4 5 4 4 4 4 3 2 2 3 3 3 4 4 5 5 5 5 5 6 7 8 6 8 11 12 12 12 12 12 12
8 8 7 6 6 4 3 4 3 1 1 3 4 2 2 5 5 6 7 7 5 6 8 6 5 2 6 7 5 5 5 4 2 4 5 5 4 4 4 3 2 1 0 3 4 4 5 5 4 2 0 1 1 2 2 2 3 4 4 4 3 2 1 1 3 3 3 3 4 5 5 4 4 4 5 5 5 5 7 9 6 5 7 9 11 12 12
5 8 11 10 6 3 3 2 3 4 3 2 5 5 4 5 6 5 4 4 4 5 8 6 6 3 3 5 4 4 7 2 3 4 4 5 5 4 3 2 2 2 2 4 4 4 6 5 4 2 1 1 1 1 1 1 1 2 2 2 2 2 1 1 2 4 3 4 4 4 5 5 5 5 5 5 5 6 6 7 8 9 9 8 8 9 10
5 5 6 7 4 4 5 6 2 3 2 4 6 6 4 6 8 7 6 4 4 3 3 5 6 5 5 3 5 4 4 5 5 3 4 3 3 3 3 3 4 3 3 4 2 3 6 5 4 3 1 2 2 1 1 0 0 0 0 1 1 1 2 3 3 4 4 5 5 4 5 5 5 5 5 5 5 5 5 6 6 7 8 7 7 8 13
4 4 4 7 9 7 3 3 4 4 3 2 3 5 7 7 6 7 6 6 5 4 4 2 2 5 6 4 4 6 5 4 4 4 4 3 2 3 3 3 3 3 3 3 2 3 4 5 4 4 4 3 2 2 2 0 1 1 1 1 0 0 2 3 3 4 4 4 4 4 4 4 4 5 5 4 4 5 5 5 6 6 7 8 8 7 6
3 2 1 4 3 5 6 4 5 4 3 4 6 4 5 9 6 5 5 4 4 6 5 4 3 3 2 4 4 4 6 6 6 5 4 3 2 1 1 2 3 2 2 1 2 2 3 3 3 3 4 4 4 2 1 2 4 3 1 1 2 1 2 2 3 3 3 4 4 4 3 3 3 3 3 3 4 4 4 5 5 5 6 6 6 6 7
3 3 5 2 4 4 7 7 5 4 4 4 5 6 3 5 8 6 4 4 2 2 2 3 4 3 3 5 5 5 3 3 4 5 4 3 2 1 1 2 2 1 1 1 1 0 1 1 1 3 4 4 3 1 1 2 3 2 0 0 1 3 3 4 3 2 3 3 3 3 3 3 3 3 4 3 3 4 4 4 4 4 5 5 5 6 6
5 4 6 2 2 2 1 2 4 4 5 3 4 5 7 7 7 7 6 5 5 5 5 4 4 6 6 5 4 4 3 2 3 2 2 2 2 1 1 1 1 2 1 1 1 1 1 0 2 4 3 3 3 3 2 3 2 1 1 2 1 2 2 4 3 3 2 1 1 2 3 3 4 3 3 4 4 4 4 4 5 5 5 5 6 6 6
4 2 2 3 3 1 2 3 5 5 4 5 6 5 5 4 5 6 7 6 5 4 5 7 6 5 4 2 2 2 2 1 0 1 1 2 2 2 2 1 1 1 1 2 2 3 3 2 3 4 3 4 3 2 3 3 2 1 1 1 0 1 2 2 2 4 4 1 1 2 1 2 2 3 4 4 4 5 4 5 4 5 4 5 4 5 5
5 7 6 5 4 4 3 5 5 5 3 1 2 2 4 4 5 6 6 5 6 6 6 7 6 4 2 2 2 3 2 1 2 4 6 5 4 3 3 2 2 2 3 3 2 4 5 5 3 4 4 3 2 1 3 2 2 0 1 0 0 1 2 3 3 1 2 3 3 3 2 4 5 4 4 5 4 4 5 4 5 5 4 5 5 5 7
3 1 1 1 3 4 4 5 5 5 4 4 3 3 3 4 5 6 6 7 7 9 7 4 4 4 4 4 4 3 4 5 7 6 7 6 5 4 2 2 2 1 3 3 3 5 5 4 3 3 3 2 2 2 3 2 2 2 1 1 1 1 1 3 3 2 2 2 2 3 4 4 3 4 4 3 4 5 4 5 5 5 5 5 5 5 6
2 4 3 3 2 2 2 2 6 6 7 6 6 5 6 6 5 5 6 7 7 4 4 4 4 4 4 5 4 4 6 7 8 8 8 9 5 1 0 1 1 2 3 5 4 5 4 2 3 4 2 2 2 3 2 2 3 3 2 2 2 2 3 2 2 2 2 3 3 2 2 3 3 4 4 4 4 4 5 4 5 5 4 4 4 5 5
3 3 6 5 4 4 3 2 2 4 4 4 4 4 4 4 7 7 6 5 4 5 5 6 5 5 7 8 6 3 4 5 5 5 6 3 1 1 1 1 1 1 2 3 4 2 1 1 2 2 1 2 2 4 1 5 3 3 2 2 2 2 2 3 3 2 3 2 2 2 3 4 4 4 4 5 5 4 4 4 4 4 4 4 4 4 5
2 3 3 3 3 3 4 4 1 2 3 1 2 4 5 6 5 4 5 5 5 5 6 7 8 7 5 2 1 4 6 5 5 5 4 3 2 2 2 2 4 2 3 6 2 1 0 1 2 0 1 2 3 4 3 6 6 4 3 3 2 2 1 2 2 1 2 3 2 3 4 4 4 4 4 4 4 4 4 4 4 4 4 4 4 4 5
2 3 4 4 5 4 4 3 2 2 3 5 5 4 4 5 4 4 5 5 3 4 5 4 2 3 4 4 5 5 5 5 4 4 3 3 2 4 6 6 6 7 7 3 1 3 2 2 1 0 2 4 4 2 3 5 5 3 3 3 3 2 1 1 1 0 1 1 2 3 4 3 4 4 4 4 4 4 3 4 4 3 5 5 5 5 5
1 2 3 3 3 3 3 3 3 1 3 3 4 5 4 4 4 5 4 4 4 5 5 4 4 5 5 5 5 6 7 4 3 3 3 2 2 3 5 6 7 7 7 7 5 5 5 5 2 1 3 4 3 2 1 1 3 3 3 3 3 2 1 0 1 0 1 2 3 3 3 3 3 4 3 4 4 4 3 3 4 4 4 4 5 4 5
2 2 1 1 1 0 2 3 2 3 1 0 1 3 2 2 4 3 4 5 4 4 4 5 6 5 5 7 8 8 4 1 2 3 3 3 3 3 4 7 5 4 6 6 6 6 5 4 3 3 4 3 3 3 2 2 1 2 4 4 3 3 2 0 0 0 2 2 2 2 1 2 4 4 4 4 3 3 3 4 4 4 4 4 4 4 4
3 2 1 2 2 2 1 2 2 2 3 2 0 1 2 2 3 6 5 3 4 5 6 6 8 9 6 5 3 2 4 3 2 3 5 7 7 4 3 7 5 4 5 6 6 5 4 4 4 4 4 4 3 5 5 3 3 3 5 5 4 4 3 2 1 1 1 1 2 2 1 1 3 3 3 3 4 4 4 4 4 4 4 4 4 4 4
2 3 4 4 4 4 4 4 3 3 2 2 0 2 2 1 4 3 2 4 4 5 5 5 5 5 3 3 3 4 5 2 3 3 4 6 5 5 6 6 4 3 4 5 5 5 5 5 5 5 6 5 5 6 6 4 3 5 6 6 4 4 4 4 2 2 1 3 2 1 1 2 3 3 3 3 2 3 3 4 4 3 4 4 4 4 4
2 3 4 4 4 5 3 3 3 2 3 3 2 1 1 1 2 2 3 3 3 4 4 4 5 5 5 4 4 5 6 4 5 5 4 5 5 6 8 7 7 6 4 4 5 5 5 5 5 6 8 7 6 6 3 3 3 5 6 6 6 5 5 4 3 3 3 3 3 3 3 3 3 3 3 3 3 2 2 2 3 3 3 4 4 3 3
1 2 3 4 4 4 4 4 5 7 6 2 2 2 1 1 2 3 3 2 2 3 3 4 4 5 5 5 7 8 8 7 7 6 5 5 5 7 4 9 9 6 6 6 5 5 4 4 5 7 6 7 6 5 3 3 4 5 6 6 6 6 6 5 5 5 4 3 3 3 3 3 4 4 3 3 3 2 2 2 3 3 3 3 3 3 3
3 3 3 3 2 5 6 6 4 2 1 2 3 3 1 0 2 3 4 4 4 4 5 5 5 5 6 7 7 6 2 2 3 6 7 8 7 5 2 5 6 6 8 7 4 4 3 4 5 6 6 5 4 2 2 3 4 5 6 6 6 6 6 6 5 5 4 4 4 3 3 3 3 3 4 4 3 3 2 3 3 2 3 3 3 3 3
2 3 2 3 4 5 4 2 1 1 0 0 3 5 4 2 2 2 4 4 3 2 2 3 4 6 6 7 6 5 5 6 6 6 7 7 6 4 3 4 5 6 6 6 6 5 5 4 5 5 5 5 3 2 2 3 4 5 6 6 6 6 6 6 5 5 5 4 3 3 4 3 4 5 3 3 4 4 3 3 3 2 2 3 3 3 3
2 3 4 3 4 3 0 1 1 2 4 6 6 6 4 3 3 3 3 3 3 1 1 2 3 5 5 6 6 7 7 7 5 7 6 7 7 6 4 4 4 6 7 6 6 5 6 7 7 6 5 4 2 2 3 3 4 5 6 6 6 6 6 5 5 5 5 4 4 5 4 3 3 3 5 5 5 4 5 4 4 3 2 2 2 2 2
2 3 4 3 2 1 1 2 3 3 6 5 4 5 4 3 1 2 4 4 4 2 3 4 3 4 4 4 5 6 6 6 8 7 4 5 6 6 6 4 5 7 6 6 5 5 6 7 6 6 5 4 3 3 4 4 3 4 5 6 6 6 6 6 6 6 6 6 5 6 5 5 5 5 4 5 5 5 4 4 5 5 4 3 3 2 2
3 2 4 4 3 2 2 2 3 6 6 4 5 6 2 1 3 7 5 5 5 4 3 4 5 5 5 4 3 4 4 5 6 4 2 3 4 3 3 4 4 6 7 6 5 4 5 6 5 5 4 3 3 4 4 4 4 4 4 5 5 6 6 6 5 6 5 5 5 5 5 6 5 5 4 4 4 4 5 5 4 4 5 5 5 4 3
3 3 3 3 3 4 3 5 6 6 5 5 6 4 2 3 6 5 5 5 2 3 5 6 5 5 4 4 4 4 2 4 4 5 5 5 3 4 4 4 4 4 4 4 4 5 4 4 4 4 4 3 3 4 4 4 4 4 4 4 4 5 5 5 5 6 6 5 5 5 5 4 4 5 5 5 4 3 4 5 5 4 4 4 4 4 4
2 2 3 3 3 4 3 4 4 4 4 5 4 3 4 6 5 6 6 4 4 6 6 4 6 7 4 3 3 3 1 0 3 2 0 1 4 4 4 5 4 4 5 4 3 3 4 4 4 5 4 3 3 3 4 4 3 3 3 3 3 3 4 5 5 5 5 6 5 5 5 5 4 5 4 3 3 4 4 3 3 5 5 5 4 3 3
Wind_Direction
30 15 15 17 78 57 83 50 26 9 324 59 96 116 172 128 144 188 161 115 103 98 95 93 72 58 70 61 54 58 70 68 67 65 62 64 64 62 59 51 60 46 24 23 47 50 46 59 72 80 86 89 92 94 93 90 85 82 84 114 124 137 144 153 163 160 151 143 140 128 126 129 90 52 106 90 91 116 171 186 191 188 186 177 165 191 216
27 10 27 21 63 94 52 38 28 19 45 79 99 92 107 113 123 133 119 96 67 18 3 42 63 80 81 73 60 63 60 59 63 66 66 68 62 59 59 47 32 42 47 21 42 52 48 55 64 70 76 84 87 88 88 86 86 87 85 69 74 78 79 70 66 72 87 97 118 135 132 141 133 141 152 173 152 127 148 184 193 190 183 177 181 185 196
8 1 32 38 13 16 79 24 27 27 22 61 92 109 89 83 66 90 106 98 74 8 19 81 73 83 93 81 70 70 70 63 66 73 71 67 67 64 55 51 44 31 32 26 30 45 43 51 59 66 71 74 73 70 69 74 76 76 77 80 78 84 82 75 80 90 87 98 119 116 124 135 152 143 115 101 87 86 88 95 119 172 159 171 185 182 185
0 353 9 352 352 342 69 28 9 3 359 53 335 55 180 133 136 124 112 104 124 98 61 81 66 66 74 86 83 82 68 51 54 69 64 59 55 51 50 49 41 34 35 30 29 33 40 52 58 60 68 70 71 71 72 69 69 68 67 62 58 59 66 68 60 62 83 76 54 57 63 54 37 48 85 84 86 92 99 86 62 82 91 134 141 147 152
331 6 37 4 333 17 11 356 344 325 291 247 27 28 26 13 146 134 165 174 81 92 80 91 64 63 61 60 51 64 60 53 63 64 58 53 54 48 47 48 36 31 37 36 27 33 36 47 59 57 64 68 63 64 65 64 67 66 65 66 66 60 54 53 56 66 65 68 68 52 41 64 67 58 59 56 37 31 19 10 60 63 43 53 55 68 128
143 357 49 17 49 109 242 345 334 272 266 306 58 25 348 353 20 13 82 113 104 72 52 63 66 54 49 60 50 32 30 65 77 67 60 56 57 54 51 52 43 32 38 37 40 45 48 50 54 58 60 69 67 63 67 64 65 65 67 63 63 59 58 56 58 64 68 72 66 61 54 51 57 54 54 52 61 48 41 21 40 34 13 27 18 29 23
139 148 71 43 286 247 10 306 337 7 64 80 90 70 46 43 86 102 94 99 97 101 89 84 83 66 53 55 51 39 37 31 46 79 68 57 51 56 50 54 50 49 48 47 47 45 39 41 46 54 57 57 69 63 60 65 61 65 62 63 58 56 56 54 55 55 59 61 62 60 57 57 57 51 48 42 42 20 38 41 55 63 66 28 325 321 317
73 73 79 143 237 252 313 285 314 343 95 54 40 56 42 33 61 109 106 106 105 109 111 107 110 101 95 60 50 42 39 45 58 71 75 63 49 60 56 56 51 50 44 45 48 55 49 44 41 45 51 52 65 64 60 62 62 61 63 61 56 51 51 47 48 48 53 54 53 51 54 58 57 50 46 44 36 13 32 32 48 66 35 37 344 321 316
146 140 81 86 354 4 15 5 357 23 0 353 16 85 9 47 13 130 122 119 118 120 123 130 129 127 103 73 40 27 37 43 44 58 65 75 68 68 64 55 53 56 55 48 42 58 57 46 42 38 35 52 64 64 59 57 60 59 59 58 52 51 50 43 43 43 47 52 50 48 47 51 49 45 39 28 30 21 42 31 33 25 16 358 337 336 334
108 136 96 103 70 192 228 241 269 210 215 214 234 107 30 49 83 134 129 129 137 133 141 147 152 155 90 70 47 26 35 32 42 34 49 67 71 63 70 64 57 48 48 43 31 45 56 51 43 43 40 45 62 60 57 55 57 56 55 53 50 52 50 45 43 40 41 45 47 45 45 45 43 43 44 45 34 17 40 31 31 13 1 15 12 6 356
71 58 119 167 168 253 169 280 310 312 272 213 183 72 14 206 153 155 145 134 150 151 150 160 174 126 93 125 144 155 85 71 46 60 58 69 72 68 71 71 63 54 46 51 52 52 57 54 38 41 54 59 60 58 52 52 55 55 50 48 45 46 45 46 48 47 46 46 45 42 45 39 37 34 31 33 23 28 36 38 37 16 23 34 28 24 12
52 137 94 199 189 179 0 326 319 316 324 232 71 52 265 176 164 157 160 147 153 156 144 134 76 144 146 161 163 134 94 48 38 46 58 63 67 62 59 61 63 53 40 50 54 57 59 52 43 49 52 61 62 57 50 50 52 50 44 43 44 48 47 45 45 46 42 46 48 47 44 42 37 39 28 33 27 33 32 37 36 33 31 30 30 18 10
40 63 68 30 350 357 355 328 316 309 288 139 83 187 241 165 149 159 164 148 151 146 147 175 107 32 95 117 141 153 162 150 137 132 112 106 106 105 99 94 89 73 59 56 58 58 59 58 56 53 57 63 62 59 56 55 51 44 43 47 47 49 50 54 53 53 52 52 54 51 45 44 48 44 38 36 32 33 29 24 32 35 33 27 22 10 3
48 33 83 207 243 247 325 319 304 279 38 107 222 247 149 143 139 152 156 149 159 157 165 119 106 105 111 117 116 117 113 102 95 99 104 100 89 80 88 96 95 94 86 79 74 67 62 66 64 65 70 72 69 63 59 56 46 37 46 49 55 57 54 54 53 51 49 46 48 48 42 40 40 39 31 35 36 36 32 32 33 33 32 27 22 9 359
46 35 78 40 15 263 13 323 324 12 90 235 264 65 66 136 135 145 163 164 175 132 105 104 111 111 113 123 131 133 124 114 106 105 107 107 104 97 89 79 77 92 88 81 79 78 70 66 63 62 67 68 64 59 58 43 21 25 26 33 41 47 50 50 48 46 44 42 38 35 32 30 36 31 22 25 25 26 25 25 25 21 15 14 11 5 0
126 47 69 151 251 289 319 355 85 326 279 258 270 110 84 86 135 149 154 124 119 116 117 119 114 114 118 101 100 96 97 100 98 94 93 95 94 89 83 94 97 90 87 82 79 70 67 65 62 61 71 73 68 64 54 20 35 36 32 31 39 43 39 36 35 33 31 32 32 30 26 23 27 27 21 20 23 26 22 29 22 22 12 9 9 9 355
100 116 187 260 275 288 310 350 9 25 16 37 69 87 86 95 53 99 105 109 110 122 119 111 115 108 96 110 115 114 118 108 99 92 89 94 95 92 89 81 79 79 85 86 83 71 60 62 58 60 65 76 72 67 37 39 43 42 39 38 42 40 36 32 28 24 26 25 22 18 18 21 21 15 10 11 12 5 11 11 14 11 3 5 4 348 348
92 66 70 26 343 332 12 24 23 45 49 34 59 82 84 56 69 80 103 103 110 108 113 113 100 107 118 105 97 97 93 91 85 94 94 86 86 88 86 76 70 81 78 73 72 65 43 42 52 54 55 69 71 68 53 55 51 52 49 48 46 43 38 34 24 22 28 16 14 11 9 13 14 11 8 1 1 352 2 1 2 2 348 350 344 342 332
44 9 357 29 358 355 19 43 44 53 55 50 64 77 75 80 80 81 74 89 92 102 104 108 117 121 123 118 124 124 117 99 94 99 102 96 99 100 91 90 83 66 70 65 60 55 45 22 43 45 55 51 68 66 58 53 52 52 51 50 46 40 37 31 25 28 33 18 7 6 4 1 1 2 359 0 354 347 347 343 343 340 340 335 331 326 322
93 165 144 337 350 353 7 12 55 59 62 68 62 76 88 90 84 83 84 79 77 78 91 104 113 117 119 121 125 121 116 119 121 121 119 114 93 81 98 92 85 76 77 86 81 73 58 27 42 51 59 63 54 55 45 48 56 53 46 43 43 34 26 28 23 18 23 12 10 2 355 357 352 346 345 347 347 330 326 324 325 321 319 319 312 309 309
8 28 17 20 47 30 18 42 50 43 57 77 68 66 75 81 82 74 59 63 89 99 108 104 107 96 68 77 95 86 72 77 97 124 133 131 130 130 112 110 105 109 105 92 102 94 79 87 109 104 115 155 185 149 176 148 100 84 69 49 48 41 23 29 17 7 12 8 359 355 348 343 337 312 300 318 321 310 293 248 244 276 299 294 287 280 278
327 187 204 172 84 215 212 94 80 72 65 85 87 81 69 70 83 86 84 62 53 67 83 107 100 102 90 79 87 77 70 69 84 105 105 113 128 116 97 110 118 112 103 111 93 74 51 88 132 133 146 179 243 243 215 187 118 96 87 53 39 31 28 39 21 21 14 8 359 358 353 344 339 332 313 309 293 274 283 301 303 296 282 275 285 293 293
227 238 206 186 147 137 200 186 172 119 123 109 101 96 100 83 94 113 108 97 70 62 42 64 102 101 102 103 91 80 68 64 76 118 132 128 116 108 94 104 93 103 102 89 70 54 25 31 86 147 152 233 303 318 355 20 44 57 71 44 32 15 18 19 12 16 12 2 356 349 350 348 341 332 322 327 322 314 294 287 307 316 309 301 297 290 278
277 164 151 180 157 158 207 230 193 77 55 112 109 114 114 125 128 114 104 114 113 91 73 47 76 112 103 104 93 91 73 57 70 67 78 120 123 106 76 122 124 108 90 81 80 76 44 30 16 242 272 330 354 350 9 19 30 52 63 72 43 359 1 354 10 13 349 339 334 347 342 340 334 326 322 319 316 308 301 297 297 297 298 301 303 302 302
129 90 105 121 98 84 57 99 74 61 70 110 120 127 129 116 112 121 117 116 121 124 115 99 65 102 107 92 93 96 96 71 79 87 89 85 79 82 73 67 58 74 92 114 101 81 47 28 8 7 2 326 348 357 8 26 50 59 58 62 39 21 23 8 6 347 328 329 324 332 331 326 322 319 317 318 319 319 303 276 276 286 291 292 294 298 297
103 86 80 66 54 61 100 75 31 60 116 104 94 88 81 105 124 113 124 133 130 125 122 130 117 132 117 113 104 105 84 73 79 106 95 87 79 69 53 43 15 8 17 61 44 51 35 21 8 9 29 288 328 337 353 39 68 81 68 59 72 70 48 15 357 339 329 312 314 318 308 295 296 302 298 295 295 303 312 320 311 263 253 268 279 285 286
93 112 96 71 68 42 14 130 198 217 175 156 128 120 102 105 102 101 93 93 120 136 138 145 138 145 91 115 118 121 123 132 59 62 86 101 104 119 137 129 96 68 38 57 41 32 49 30 11 0 276 269 283 303 357 60 67 69 65 67 49 25 0 11 0 313 303 307 317 316 317 320 325 323 317 318 318 317 319 321 319 320 325 315 307 303 302
130 135 121 137 165 157 205 223 163 130 117 137 129 111 123 114 112 112 113 108 102 96 115 137 129 121 121 147 113 107 100 107 117 124 103 129 154 157 145 124 101 86 67 67 41 19 49 32 17 350 300 274 283 325 356 72 88 101 68 55 56 10 324 336 342 333 323 325 323 322 321 320 321 314 314 317 321 313 308 298 301 306 309 307 306 316 311
153 151 139 144 164 179 150 104 99 125 124 76 95 114 123 118 138 142 156 164 162 146 137 178 167 154 155 182 143 152 157 147 149 161 174 190 186 173 148 115 110 97 67 87 40 16 50 37 15 356 308 301 323 335 347 341 252 217 186 139 175 297 304 312 323 317 319 320 318 323 324 325 325 328 327 321 307 295 289 294 301 307 305 312 322 321 307
358 2 106 156 153 126 117 145 182 170 145 141 127 140 158 138 148 175 169 168 171 163 186 167 158 192 175 171 198 168 168 184 186 187 184 198 202 204 112 125 82 39 32 38 47 354 63 48 23 335 293 305 318 315 332 226 247 233 197 166 190 210 245 280 312 318 328 326 325 334 345 343 337 337 331 321 306 297 297 299 303 307 312 318 321 319 328
33 61 38 29 114 153 163 183 183 169 172 186 165 139 157 158 154 162 174 168 175 171 154 169 199 206 200 208 210 213 214 155 167 173 190 190 194 211 176 133 147 199 208 226 133 259 70 69 346 282 272 288 307 298 288 260 229 236 74 251 239 261 273 295 301 310 305 302 321 349 348 347 351 9 351 334 328 326 318 312 321 323 324 326 330 337 329
116 105 106 67 72 117 187 195 162 177 194 196 143 163 162 156 168 175 175 170 182 174 181 197 206 206 215 217 219 207 198 146 126 134 167 188 222 268 11 93 140 174 207 148 164 226 227 67 310 271 284 298 313 335 266 213 171 144 254 263 297 321 313 317 341 317 298 285 304 349 355 353 349 359 2 348 327 313 316 336 336 337 342 340 341 338 324
93 63 45 46 11 28 151 217 182 214 204 190 209 199 190 186 169 169 172 169 161 180 183 197 212 217 208 191 214 170 111 68 27 352 307 271 270 276 281 293 222 190 226 217 208 221 225 228 252 282 296 297 299 307 252 196 158 182 243 217 233 303 337 347 338 325 301 339 20 20 358 354 343 5 3 329 326 324 335 340 345 348 347 343 338 330 322
165 187 181 177 176 209 216 225 216 201 195 252 256 199 176 178 171 171 168 167 173 181 198 210 211 200 156 168 174 114 104 104 281 268 265 267 270 273 271 252 249 231 242 250 237 240 234 236 245 274 283 281 283 296 254 182 136 150 195 137 107 39 2 341 341 327 345 9 356 339 13 35 9 9 344 342 339 347 344 345 357 356 355 353 345 334 347
167 203 254 213 224 218 191 164 170 171 164 167 207 226 221 179 168 174 172 166 180 202 206 190 173 161 140 159 163 154 166 200 223 230 250 253 259 261 276 260 248 279 297 278 243 245 232 230 237 257 269 273 300 288 245 170 138 152 162 142 109 83 3 350 329 337 28 345 15 3 0 16 356 354 354 0 356 347 352 4 7 10 13 0 348 352 3
159 105 76 77 65 50 351 222 165 173 170 180 187 185 189 196 181 161 172 198 203 177 161 161 147 136 161 181 180 198 214 230 236 240 252 253 248 248 203 228 257 294 313 304 265 241 239 237 240 229 234 288 304 258 238 136 124 142 173 125 95 62 27 10 331 330 29 40 43 20 356 7 3 5 4 4 4 8 11 8 12 15 13 1 350 2 7
24 102 126 97 63 54 46 302 204 155 181 201 196 185 202 200 197 203 197 185 174 178 166 145 141 165 200 210 208 216 232 226 221 222 233 251 241 179 205 223 262 241 276 278 274 251 251 261 263 240 258 258 233 239 203 119 128 154 157 127 98 72 32 358 339 20 25 27 46 33 24 16 11 8 9 13 12 9 12 14 17 18 16 11 8 14 21
67 73 55 65 100 71 11 344 284 211 170 253 236 205 196 195 208 209 210 210 194 176 170 172 183 196 189 146 187 230 246 242 234 234 245 248 217 182 238 213 245 211 233 237 250 285 293 351 353 14 219 189 200 215 130 107 139 154 178 160 135 105 62 8 318 30 50 39 37 43 34 28 12 10 6 9 16 12 14 23 31 26 19 16 18 26 30
40 21 65 79 71 65 55 38 48 305 235 199 225 230 220 200 205 184 198 210 193 164 169 181 147 139 169 192 230 250 252 243 228 221 228 232 201 188 224 221 221 207 218 223 262 280 295 321 357 35 170 173 204 213 115 105 139 163 196 175 143 126 101 39 298 70 80 66 55 42 31 26 23 20 6 12 13 17 25 39 40 37 32 20 26 29 30
188 189 181 153 144 158 111 65 21 344 251 248 193 204 210 174 180 176 187 184 197 183 177 160 162 189 207 216 230 248 251 232 204 189 198 190 180 230 279 285 254 242 242 248 252 261 265 270 275 210 190 174 192 199 195 123 122 161 192 189 171 138 122 116 299 337 51 57 67 48 37 30 30 23 16 9 17 27 29 35 44 40 38 34 32 27 36
226 252 324 50 221 179 118 76 33 335 355 166 261 307 316 205 165 151 187 200 195 178 180 175 185 211 213 216 219 235 253 216 186 180 158 140 186 227 249 271 262 233 229 222 223 230 238 237 204 194 213 184 175 181 185 232 166 164 193 201 180 161 157 126 348 211 143 117 105 94 70 40 50 38 24 20 19 27 31 34 39 40 41 42 34 26 33
255 240 194 207 219 217 196 148 142 53 17 14 349 191 199 198 181 207 213 181 168 181 186 202 204 208 217 223 231 258 269 234 178 179 180 187 204 197 214 262 261 249 221 213 218 213 218 218 209 198 193 185 182 204 199 198 189 185 195 197 189 180 162 164 203 270 229 141 131 130 114 83 83 68 44 35 26 27 33 36 36 40 39 39 37 26 25
236 200 202 210 224 221 196 202 204 184 208 246 261 13 331 187 195 233 193 184 190 185 198 210 219 231 226 194 191 226 256 237 197 207 221 246 230 202 200 236 269 285 225 205 200 193 204 206 197 198 194 175 182 196 201 201 185 190 194 191 182 180 176 176 187 219 182 151 136 139 123 112 100 94 83 66 44 26 36 43 48 42 44 42 38 35 33
208 202 215 214 231 233 230 226 227 221 227 251 225 220 283 266 201 198 220 217 197 193 194 210 209 211 216 203 189 225 248 230 223 202 203 272 290 247 222 239 252 256 241 208 203 195 198 195 196 200 202 188 179 184 196 201 185 189 188 183 185 182 178 176 178 185 195 187 173 170 165 137 122 119 111 100 80 59 46 40 35 39 43 47 48 47 42
264 220 203 219 233 236 232 229 219 231 227 228 195 223 177 144 230 198 171 180 205 221 229 224 211 214 210 199 206 220 220 212 195 160 163 241 271 281 233 205 223 226 216 203 207 207 197 195 197 193 195 196 194 185 194 201 185 186 186 183 184 182 182 179 183 192 203 190 180 176 158 155 149 141 133 126 120 106 93 76 58 51 56 56 55 54 41
312 300 293 286 243 232 228 222 240 263 271 254 260 297 313 236 215 209 187 177 188 208 205 206 206 217 207 209 223 231 242 256 221 201 202 187 188 223 215 189 207 209 201 195 204 206 213 196 184 190 203 200 206 202 215 214 183 181 181 182 185 186 186 182 180 190 191 182 179 171 166 158 146 148 145 142 138 131 119 104 88 69 72 75 70 67 54
273 299 286 247 258 261 268 253 195 170 203 293 267 264 276 286 268 235 194 177 171 188 195 212 231 222 203 199 196 202 229 249 260 237 234 252 257 263 226 205 211 208 190 189 197 201 197 189 192 197 202 211 204 232 217 185 177 183 182 182 186 188 185 181 184 187 185 183 180 176 171 173 167 154 149 140 138 134 135 123 114 117 113 100 82 72 68
284 292 293 280 267 285 324 149 152 199 213 222 226 237 242 238 243 262 274 255 219 179 3 294 235 235 215 208 209 204 196 190 229 268 219 219 229 227 230 213 214 198 195 192 190 201 192 191 186 191 200 204 206 222 198 190 182 182 177 179 184 188 185 183 181 180 181 178 169 163 163 174 184 167 161 156 163 159 153 145 144 138 132 123 117 109 94
267 275 282 291 294 290 204 186 196 229 245 242 236 247 242 212 216 266 268 269 285 269 219 242 261 269 259 229 207 214 214 193 179 225 234 195 209 211 221 212 192 179 178 182 189 196 194 189 187 191 203 215 215 214 185 188 200 185 177 183 188 189 186 185 188 180 177 183 183 178 177 175 177 173 174 172 165 164 163 162 160 158 151 144 129 113 95
289 332 329 326 315 281 220 202 226 234 243 242 237 246 229 186 291 281 259 262 254 254 272 275 264 258 255 260 251 239 215 209 225 227 198 195 192 188 179 181 185 182 179 181 185 190 187 184 179 186 201 215 215 193 175 182 204 194 188 182 183 189 192 188 181 181 186 182 182 183 183 182 178 178 173 174 182 175 169 168 166 165 158 153 148 146 138
308 309 283 268 249 242 217 204 219 223 230 232 241 242 187 195 231 249 256 248 239 253 261 268 275 266 268 268 278 285 256 223 210 199 186 176 168 172 173 172 174 178 182 178 184 189 185 181 185 191 199 207 200 184 177 188 196 185 174 181 189 182 179 180 179 187 194 191 191 190 186 182 177 174 176 179 180 182 177 169 161 164 168 171 167 164 157
248 262 281 287 285 273 257 253 256 239 230 227 235 230 218 222 231 260 275 241 205 227 232 243 278 281 259 241 242 256 309 228 128 94 258 185 173 166 167 162 165 175 182 188 198 194 188 185 184 188 186 190 195 188 194 201 205 193 185 179 175 183 184 181 181 186 192 191 189 190 189 186 180 175 181 186 181 176 178 181 178 170 164 161 160 154 146